Vorticity
8 8 8 9 9 9 10 10 10 9 9 8 9 7 3 3 4 5 5 6 9 16
7 8 7 6 6 6 6 7 6 7 7 7 8 9 10 10 5 5 3 3 4 1
5 6 7 6 5 4 2 1 2 2 3 4 4 4 6 5 7 9 5 6 4 4
5 5 5 5 6 8 9 12 15 19 18 17 15 15 15 9 6 6 6 6 7 4
6 7 9 13 22 31 38 40 43 43 44 44 44 43 45 46 46 41 32 14 8 10
16 25 34 42 42 37 35 30 22 18 17 17 17 18 19 21 24 30 39 44 47 30
36 37 35 31 26 19 11 11 17 22 29 35 35 33 33 33 31 24 16 15 26 36
30 26 22 13 10 23 37 31 24 13 4 7 10 13 13 17 21 23 28 37 24 13
21 14 9 30 34 10 -1 11 15 12 18 30 30 25 28 12 4 10 20 25 34 40
9 22 30 2 7 14 22 17 23 23 14 2 10 9 5 9 16 25 17 14 27 31
28 12 4 8 24 24 16 11 6 13 30 32 37 30 24 20 19 3 1 24 21 30
10 4 14 29 19 7 6 11 19 19 20 14 16 32 37 13 14 27 18 6 27 28
4 21 20 9 4 18 21 19 20 25 26 19 12 25 17 29 23 24 34 19 41 20
16 16 10 14 25 8 15 21 14 11 18 11 21 31 -2 44 34 36 25 49 23 17
Height
5613 5607 5602 5598 5593 5589 5585 5582 5578 5576 5574 5573 5572 5572 5572 5572 5573 5575 5580 5584 5587 5593
5590 5584 5578 5572 5566 5561 5556 5552 5548 5544 5542 5540 5539 5539 5540 5544 5546 5546 5549 5554 5559 5565
5567 5559 5552 5544 5537 5530 5524 5518 5513 5509 5506 5504 5501 5499 5500 5505 5509 5513 5518 5522 5527 5535
5543 5533 5523 5513 5504 5495 5488 5479 5474 5468 5465 5462 5460 5458 5459 5462 5466 5471 5478 5486 5492 5500
5515 5503 5492 5480 5469 5458 5451 5444 5436 5431 5426 5423 5420 5418 5418 5420 5422 5425 5434 5444 5451 5465
5483 5470 5458 5447 5437 5429 5421 5417 5411 5404 5401 5398 5394 5391 5389 5387 5388 5389 5393 5399 5410 5423
5452 5440 5431 5422 5415 5408 5401 5395 5389 5382 5378 5375 5370 5366 5363 5360 5359 5360 5362 5367 5372 5382
5430 5421 5413 5406 5398 5390 5382 5376 5370 5365 5361 5357 5352 5348 5342 5338 5335 5334 5334 5337 5344 5351
5415 5407 5399 5390 5382 5376 5370 5363 5356 5349 5343 5338 5333 5328 5323 5318 5314 5313 5312 5314 5315 5321
5402 5394 5386 5379 5372 5364 5356 5349 5341 5334 5327 5322 5317 5310 5305 5299 5294 5292 5293 5293 5294 5295
5390 5384 5377 5369 5361 5353 5345 5337 5329 5321 5313 5306 5299 5290 5285 5280 5276 5274 5276 5274 5274 5274
5382 5375 5367 5359 5352 5345 5336 5327 5317 5308 5300 5292 5285 5276 5269 5264 5259 5256 5258 5258 5256 5257
5375 5367 5359 5352 5344 5335 5326 5316 5307 5299 5290 5281 5274 5265 5257 5249 5242 5239 5240 5241 5242 5244
5369 5360 5352 5345 5336 5327 5318 5309 5300 5293 5282 5273 5264 5255 5247 5237 5229 5226 5226 5228 5231 5235